Погода в Конотопе

Украина / Сумская область     51°14′20″N   33°12′35″E
темп.,
°C
ветер,
м/с
пор.,
м/с
влажн.,
%
обл.,
%
осадки,
мм/ч
давл.,
гПа
погр.,
м
19 сентября, вс
вс1900:00+10вюв61291100 4.3 1008401
03:00+13юв4997100 7.5 1007434
06:00+13з129997 3.8 100695
09:00+12зсз459264 3.9 1006278
12:00+16з347150 0.0 1007850
15:00+18зюз336197 0.0 10071291
18:00+16ю1172100 0.4 100613
21:00+13ю2387100 1.1 100680
20 сентября, пн
пн2000:00+13вюв2494100 2.6 1005120
03:00+9зюз4695100 6.4 1006458
06:00+9зюз3693100 2.7 1005482
09:00+8юз4792100 4.2 1006501
12:00+9юз5888100 0.1 1007613
15:00+9ююз6887100 0.2 1007740
18:00+9юз5995100 1.0 1006686
21:00+8зюз61095100 1.8 1008709
21 сентября, вт
вт2100:00+8зюз61095100 0.6 1009680
03:00+7зюз61095100 0.9 1009598
06:00+7зюз5995100 1.2 1009599
09:00+6зюз5894100 2.7 1010561
12:00+7з5995100 0.7 1010487
15:00+7зсз6994100 0.9 1011599
18:00+5зсз6997100 0.6 1013847
21:00+5зсз6997100 1.0 1014902
22 сентября, ср
ср2200:00+5зсз6996100 0.4 1014813
03:00+4зсз6995100 0.7 1014738
06:00+4зсз5897100 0.3 1014692
09:00+4зсз4797100 0.5 1014716
12:00+5зсз4694100 0.2 1014653
15:00+5з4697100 0.3 1014669
18:00+5з3595100 0.1 1014428
21:00+5зюз3496100 0.3 1014274
23 сентября, чт
чт2300:00+5юз2396100 0.1 1014245
03:00+6ююз2397100 0.3 1013242
06:00+6ю3497100 0.3 1013262
09:00+6ююв2396100 0.7 1013290
12:00+7ююв349499 0.4 1014356
15:00+7ююв459295 0.6 1014411
18:00+7ююв349493 0.3 1014254
21:00+7зюз239358 0.3 101498